This is the latest recevied weather packets stored in our database for station/object SQ5LTL-2. If no packets are shown the sender has not sent any weather packets the latest 10 day(s).
| Time | Temp. | Humidity | Pressure | Rain* | Wind** | Luminosity | Snow |
|---|---|---|---|---|---|---|---|
| 1777560922 | 12.78° C | 27% | 1028 hPa | 0 mm | - | 304 W/m² | - |
| 1777560620 | 12.78° C | 27% | 1028.1 hPa | 0 mm | - | 361 W/m² | - |
| 1777560319 | 12.78° C | 28% | 1028.2 hPa | 0 mm | - | 373 W/m² | - |
| 1777560019 | 12.22° C | 28% | 1028.1 hPa | 0 mm | - | 373 W/m² | - |
| 1777559716 | 12.22° C | 29% | 1028.1 hPa | 0 mm | - | 352 W/m² | - |
| 1777559435 | 12.22° C | 27% | 1028.3 hPa | 0 mm | - | 381 W/m² | - |
| 1777559133 | 12.22° C | 26% | 1028.4 hPa | 0 mm | - | 383 W/m² | - |
| 1777558832 | 11.67° C | 27% | 1028.4 hPa | 0 mm | - | 369 W/m² | - |
| 1777558530 | 12.22° C | 28% | 1028.6 hPa | 0 mm | - | 358 W/m² | - |
| 1777558228 | 11.67° C | 29% | 1028.5 hPa | 0 mm | - | 361 W/m² | - |
| 1777557927 | 12.22° C | 30% | 1028.5 hPa | 0 mm | - | 341 W/m² | - |
| 1777557626 | 12.22° C | 29% | 1028.5 hPa | 0 mm | - | 387 W/m² | - |
| 1777557324 | 12.22° C | 29% | 1028.5 hPa | 0 mm | - | 399 W/m² | - |
| 1777557023 | 11.67° C | 31% | 1028.6 hPa | 0 mm | - | 410 W/m² | - |
| 1777556722 | 11.67° C | 30% | 1028.6 hPa | 0 mm | - | 419 W/m² | - |
| 1777556420 | 12.22° C | 29% | 1028.6 hPa | 0 mm | - | 430 W/m² | - |
| 1777556118 | 11.67° C | 29% | 1028.6 hPa | 0 mm | - | 443 W/m² | - |
| 1777555817 | 11.67° C | 30% | 1028.7 hPa | 0 mm | - | 456 W/m² | - |
| 1777555536 | 11.67° C | 29% | 1028.9 hPa | 0 mm | - | 468 W/m² | - |
| 1777555234 | 11.67° C | 27% | 1029 hPa | 0 mm | - | 476 W/m² | - |
| 1777554932 | 11.67° C | 28% | 1028.9 hPa | 0 mm | - | 481 W/m² | - |
| 1777554631 | 11.11° C | 29% | 1029 hPa | 0 mm | - | 489 W/m² | - |
| 1777554331 | 11.11° C | 29% | 1029 hPa | 0 mm | - | 499 W/m² | - |
| 1777554029 | 11.11° C | 29% | 1029.1 hPa | 0 mm | - | 507 W/m² | - |
| 1777553726 | 11.11° C | 30% | 1029.2 hPa | 0 mm | - | 507 W/m² | - |
* Rain latest hour (hover to see other rain measurements)
** Current wind speed in m/s (hover to see current wind gust speed)